Simultaneous Nadir Overpasses (SNOs) Predictions

Prediction of SNOs between METOP-A and TERRA Satellite Orbit:

Table of predicted SNOs for the next 14.0 days since TLE Epoch: 11/7/2020
Index Date (METOP-A) Time (METOP-A) Lat,Lon (METOP-A) SZA (METOP-A ) Date (TERRA) Time (TERRA) Lat,Lon (TERRA) SZA (TERRA ) Distance(km) Time Diff (sec)
1 11/08/2020 16:51:43 -81.38, 155.28 78.58 11/08/2020 16:52:24 -81.37, 155.30 78.56 0.96 41
2 11/08/2020 17:42:23 81.37, -36.95 101.48 11/08/2020 17:41:50 81.38, -36.96 101.47 1.12 33
3 11/11/2020 12:26:06 -81.38,-138.44 77.82 11/11/2020 12:26:39 -81.37,-138.29 77.79 2.73 33
4 11/11/2020 13:16:46 81.37, 29.31 102.24 11/11/2020 13:16:05 81.37, 29.42 102.23 1.99 41
5 11/14/2020 08:00:27 -81.37, -71.78 77.07 11/14/2020 08:00:53 -81.37, -71.93 77.08 2.53 26
6 11/14/2020 08:51:07 81.36, 95.94 102.98 11/14/2020 08:50:19 81.37, 95.76 102.94 3.23 48
7 11/17/2020 03:34:50 -81.37, -5.54 76.40 11/17/2020 03:35:08 -81.36, -5.62 76.41 2.15 18
8 11/17/2020 04:25:30 81.36, 162.17 103.65 11/17/2020 04:24:34 81.36, 162.05 103.60 2.08 56
9 11/19/2020 23:09:12 -81.37, 61.08 75.75 11/19/2020 23:09:22 -81.37, 61.03 75.75 0.90 10
